Regional Weather Roundup
Issued by NWS

Home | Current Version | Previous Version | Graphics & Text | Print | Product List | Glossary On
Versions: 1 2 3 4 5 6 7 8 9 10 11 12 13 14 15 16 17 18 19 20 21 22 23 24 25 26 27 28 29 30 31 32 33 34 35 36 37 38 39 40 41 42 43 44 45 46 47 48 49 50
000
ASUS45 KTFX 211310
RWRMT
MONTANA REGIONAL WEATHER ROUNDUP
NATIONAL WEATHER SERVICE GREAT FALLS MT
700 AM MDT SAT OCT 21 2017

NOTE: "FAIR" INDICATES FEW OR NO CLOUDS BELOW 12000 FEET WITH NO
SIGNIFICANT WEATHER AND/OR OBSTRUCTIONS TO VISIBILITY.

MTZ001>007-043-211400-
WEST OF THE DIVIDE

CITY           SKY/WX    TMP DP  RH WIND       PRES   REMARKS
KALISPELL      CLOUDY    41  33  73 S9        29.93R
MISSOULA       CLOUDY    38  33  82 E6        29.99R
BUTTE          CLOUDY    32  23  69 CALM      29.96R
MULLAN PASS    CLOUDY    25  22  88 VRB7      29.92R WCI  17
ANACONDA         N/A     34  19  55 CALM      29.96R
DEER LODGE       N/A     36  27  69 CALM      29.97R
EUREKA           N/A     43  32  65 MISG      29.90R
LIBBY            N/A     39  36  87 S6        29.93R
$$

MTZ008-052>055-211400-
SOUTHWEST MONTANA

CITY           SKY/WX    TMP DP  RH WIND       PRES   REMARKS
BOZEMAN        CLOUDY    36  28  73 CALM      29.94R
DILLON         CLOUDY    33  21  61 SW14      29.97R WCI  23
W YELLOWSTONE  CLOUDY    27  25  93 SW7       29.98S WCI  19
ENNIS          CLOUDY    36  19  51 SE7       30.00S WCI  30
THREE FORKS      N/A     37  23  57 SW3       29.94R
$$

MTZ009-010-012-014-046-048-049-054-211400-
EAST SLOPES AND CENTRAL MONTANA

CITY           SKY/WX    TMP DP  RH WIND       PRES   REMARKS
CUT BANK       CLEAR     35  28  75 W17       29.77R WCI  25
GREAT FALLS    CLEAR     37  24  59 SW15      29.81R WCI  28
MALMSTROM AFB  CLEAR     38  26  62 SW17G25   29.81R WCI  29
HELENA         CLOUDY    40  26  57 W8        29.91S
BOWMANS CRNR     N/A     32  24  70 SW16      29.81R WCI  22
CHOTEAU          N/A     37  19  48 CALM      29.80R
FAIRFIELD        N/A     39  22  49 SW17      29.79R WCI  30
POWER            N/A     30  24  77 SW10      29.79R WCI  21
RAYNESFORD       N/A     40  22  50 SW20      29.81R
ULM              N/A     39  24  55 SW16      29.83R WCI  30
$$

MTZ011-013-016-021-045-047-050-051-211400-
NORTH CENTRAL MONTANA

CITY           SKY/WX    TMP DP  RH WIND       PRES   REMARKS
HAVRE          MOCLDY    38  35  89 SW13G25   29.73R WCI  30
LEWISTOWN      PTCLDY    36  23  59 W14       29.78R WCI  27
N BAR RANCH      N/A     39  19  45 W12G29    29.78R WCI  32
CHINOOK          N/A     41  39  93 W15       29.70R
DENTON         MOCLDY    42  23  48 W21       29.75R
GEYSER         MOCLDY    33  24  68 W14       29.80R WCI  23
GRASS RANGE    MOCLDY    40  23  50 W24G31    29.72R
JUDITH GAP     MOCLDY    37  19  49 W23G31    29.79R WCI  26
WINIFRED       MOCLDY    40  24  53 W17       29.75R
$$

MTZ017>020-022>027-061-062-211400-
NORTHEAST MONTANA

CITY           SKY/WX    TMP DP  RH WIND       PRES   REMARKS
GLASGOW        CLOUDY    43  39  86 W25G32    29.60R
JORDAN           N/A     45  31  58 W24G32    29.69R
SIDNEY         CLOUDY    46  38  73 W26G35    29.56R
WOLF POINT     LGT RAIN  45  41  86 W17G26    29.58R
MALTA          CLOUDY    43  39  87 W20       29.66R
PLENTYWOOD       N/A     46  39  76 W23       29.46R
POPLAR           N/A     43  39  87 W23G32    29.56R
SCOBEY           N/A     44  31  60 W20       29.52
$$

MTZ028>42-056>058-211400-
SOUTHCENTRAL AND SOUTHEAST MONTANA

CITY           SKY/WX    TMP DP  RH WIND       PRES   REMARKS
BAKER          CLOUDY    45  30  55 W22G30    29.66R
BILLINGS       PTCLDY    43  20  39 W22G33    29.81R
LIVINGSTON     CLOUDY    41  18  39 W13G23    29.89R
MILES CITY     CLOUDY    45  32  60 W24       29.71R
BIG TIMBER     CLEAR     39  18  41 W17G30    29.88R WCI  30
FORSYTH          N/A     45  28  53 W13G18    29.75R
HARLOWTON        N/A     35  22  57 W25       29.81R WCI  23
LAUREL           N/A     45  18  33 W25G37    29.81R
$$

REGIONAL REPORTS...DAKOTAS

CITY           SKY/WX    TMP DP  RH WIND       PRES   REMARKS
WILLISTON        N/A    N/A N/A N/A MISG      29.50R
MINOT          MOCLDY    49  38  65 SW20G30   29.41R
DICKINSON      CLOUDY    45  34  65 W24G32    29.54R
BEACH          CLOUDY    45  34  65 W25G32    29.63R
CROSBY           N/A     45  37  76 W13       29.44R
TIOGA            N/A     43  41  93 W21       29.48R
WATFORD CITY     N/A     46  37  71 W20G25    29.52R
BISMARCK       LGT RAIN  51  39  63 W26G37    29.52R
GRAND FORKS    PTCLDY    62  58  86 S16G24    29.36R
FARGO          MOCLDY    63  58  83 S17G29    29.41R
BUFFALO SD       N/A     46  26  45 W29G35    29.60R
RAPID CITY     MOCLDY    50  25  37 NW24G35   29.68R
$$

REGIONAL REPORTS...WYOMING/IDAHO/WASHINGTON

CITY           SKY/WX    TMP DP  RH WIND       PRES   REMARKS
GILLETTE       CLOUDY    39  18  42 NW10      29.79R
SHERIDAN       CLEAR     32  18  56 NW6       29.82R WCI  26
BUFFALO WY     CLEAR     32  13  45 W9        29.82R WCI  24
CODY           PTCLDY    39  15  37 SW6       29.90R
YELLOWSTONE LA   N/A     24  20  84 CALM      29.99R
IDAHO FALLS    MOCLDY    32  29  88 SW13      30.07R WCI  22
SALMON         CLOUDY    35  32  88 NW3       30.05R
BOISE          MOCLDY    35  30  82 E8        30.13S WCI  29
SPOKANE        PTCLDY    34  33  96 S6        29.97R WCI  29
$$

REGIONAL REPORTS...ALBERTA

CITY           SKY/WX    TMP DP  RH WIND       PRES   REMARKS
EDMONTON       CLEAR     28  27  93 W7        29.63R WCI  21
CALGARY        CLEAR     27  25  93 VRB2      29.67R
LETHBRIDGE     CLEAR     39  28  65 W21       29.72R WCI  29
MEDICINE HAT   MOCLDY    37  34  87 W12       29.68R WCI  30
$$

REGIONAL REPORTS...SASKATCHEWAN

CITY           SKY/WX    TMP DP  RH WIND       PRES   REMARKS
SWIFT CURRENT  LGT RAIN  39  37  93 NW25G32   29.52R FOG     WCI  28
REGINA         MOCLDY    43  37  81 W17G23    29.38R
SASKATOON      CLOUDY    43  37  81 N15       29.41R
$$



USA.gov is the U.S. government's official web portal to all federal, state and local government web resources and services.